DMSP 5D-2 F11 DEB, 28322

Orbit data source: Space-Track

DMSP 5D-2 F11 DEB, 28322 is space debris in SSO originally from a launch on Thu, 28 Nov 1991 UTC launched from the Air Force Western Test Range (AFWTR). Debris objects in space refer to the collection of defunct objects orbiting the Earth. Examples of debris include non-operational satellites, rocket bodies, and fragments generated from explosions, collisions, or faulty payload assembly.

Loading next visibility...
Identifier
28322, 1991-082AK
Orbit
SSO
Country
Flag of USUS
Related business
Manufacturer
Unknown
Mission
Spacecraft
Bus & Motor
Unknown
Mass
Unknown
Launch date (UTC)
1991-11-28 (34 years ago)
Launch vehicle
Unknown
Launch site
Air Force Western Test Range (AFWTR)
Object type
Payload
Rocket body
Debris
Shape & HBR
Unknown shape, 0.1 m
Radar Cross Section
Small (<0.1 m²)

Expand to show TLE details & history
Last TLE update: 12 hours ago

TLE from 12 hours ago
0 DMSP 5D-2 F11 DEB
1 28322U 91082AK  26129.49459030  .00000304  00000-0  22636-3 0  9990
2 28322  98.5638 130.6336 0111090 334.7119 178.9032 13.98959903121808
Epoch: 2026-05-09T11:52Z
TLE epoch observation values (Epoch: 2026-05-09T11:52:12.601Z)
Latitude
26.07801°
Longitude
-90.52544°
Altitude
981.37 km
Speed
7.322 km/s
True Right ascension
20h 59m 21s
True Declination
25° 56' 48"
Sunlit
Object was in daylight at epoch
Visualization orbit readout
Latitude
Unknown
Longitude
Unknown
Altitude
Unknown
Speed
Unknown
Apparent Right ascension
Unknown
Apparent Declination
Unknown
Sunlit
N/A
Visualization observer readout
Local Sidereal Time
07:53:27
Azimuth
Unknown
Elevation
Unknown
Doppler factor
Unknown
Orbital elements
Apogee altitude
975.371 km
Perigee altitude
813.786 km
Semi-major axis
7,272.715 km
Eccentricity
0.01111
Inclination
98.5638°
RAAN
130.6336°
Arg. of periapsis
334.7119°
True anomaly
178.92723°
Mean anomaly
178.9032°
Eccentric anomaly
178.91525°
Mean motion
3.49944 °/min
Orbital period
102.87 mins
BSTAR
0.00022636
Loading maneuver chart data...
Computing Atmospheric mass density...

Documentation

Showing up to 5 results
|